Regional Weather Roundup
Issued by NWS

Home | Current Version | Previous Version | Text Only | Print | Product List | Glossary Off
Versions: 1 2 3 4 5 6 7 8 9 10 11 12 13 14 15 16 17 18 19 20 21 22 23 24 25 26 27

000
ASUS43 KDMX 190907
RWRIA

WEATHER ROUNDUP FOR IOWA
NATIONAL WEATHER SERVICE DES MOINES IA
400 AM CDT SAT APR 19 2014

NOTE: "FAIR" INDICATES FEW OR NO CLOUDS BELOW 12,000 FEET WITH NO
SIGNIFICANT WEATHER AND/OR OBSTRUCTIONS TO VISIBILITY.

* - THESE STATIONS ARE NOT NWS STATIONS...THUS NOT UNDER NWS
QUALITY CONTROL.  THEY ALSO DO NOT REPORT WEATHER SUCH
AS PRECIPITATION OR FOG.

IAZ001>003-012>014-020>022-031>034-043>046-191000-
   NORTHWEST IOWA

CITY           SKY/WX    TMP DP  RH WIND       PRES   REMARKS
CARROLL *      CLOUDY    50  41  71 S14       30.08S
CHEROKEE *     PTCLDY    50  39  66 S10       30.02S
DENISON *      MOCLDY    54  41  62 S21G28    30.04R
LE MARS *      CLEAR     55  41  58 S18       29.98R
ORANGE CITY *  CLEAR     52  39  62 SE10      29.98S
SHELDON *      CLEAR     52  39  62 S22G30    29.97S
SIOUX CITY     CLEAR     52  40  63 SE10      29.99S
SPENCER        PTCLDY    50  39  66 S20       30.02S
STORM LAKE *   PTCLDY    48  39  71 S16       30.05S
$$

IAZ055>058-069>071-079>083-090>094-191000-
   SOUTHWEST IOWA

CITY           SKY/WX    TMP DP  RH WIND       PRES   REMARKS
ATLANTIC *     CLOUDY    52  41  66 S13G20    30.08R
AUDUBON *      CLEAR     50  39  66 S8        30.09S
CLARINDA *     PTCLDY    50  41  71 S8        30.13S
COUNCIL BLFS * MOCLDY    54  43  66 S17G25    30.04F
CRESTON *      CLEAR     48  41  76 S14       30.13S
HARLAN  *      CLEAR     52  41  66 S13       30.10S
LAMONI         PTCLDY    50  36  58 SE13      30.14F
RED OAK *      CLEAR     54  41  62 S13       30.09S
SHENANDOAH *   PTCLDY    54  41  62 SE17G25   30.09F
$$

IAZ047>049-059>061-072>074-084-191000-
   CENTRAL IOWA

CITY           SKY/WX    TMP DP  RH WIND       PRES   REMARKS
AMES           PTCLDY    44  32  62 SE8       30.15F
ANKENY *       CLEAR     46  32  57 SE7       30.15F
CHARITON *     PTCLDY    48  34  57 SE8       30.17S
DES MOINES     PTCLDY    51  33  50 SE8       30.15F
GRINNELL*      CLOUDY    45  32  61 E12       30.19F
KNOXVILLE *    CLEAR     52  30  43 SE12      30.17S
MARSHALLTOWN   MOCLDY    48  32  53 SE16      30.18S
NEWTON *       CLEAR     46  30  53 SE12      30.18F
PELLA *        MOCLDY    46  32  57 SE7       30.19F
PERRY *          N/A     48  36  61 SE14      30.11F
$$

IAZ004>006-015-016-023>025-035-036-191000-
   NORTH CENTRAL IOWA

CITY           SKY/WX    TMP DP  RH WIND       PRES   REMARKS
ALGONA *       PTCLDY    48  32  53 SE22G28   30.08S
CLARION *      PTCLDY    45  30  57 SE22G30   30.12F
ESTHERVILLE    MOCLDY    45  35  68 SE18      30.03F
FORT DODGE *   MOCLDY    50  34  53 SE10      30.11S
MASON CITY     CLEAR     42  33  70 SE15      30.16F
FOREST CITY *  CLEAR     45  32  61 SE20      30.12F
IOWA FALLS *     N/A     45  34  65 E10       30.18S
$$

IAZ007>011-017>019-026>030-037>042-050>054-066-191000-
   NORTHEAST IOWA

CITY           SKY/WX    TMP DP  RH WIND       PRES   REMARKS
CEDAR RAPIDS   MOCLDY    41  34  76 SE17G24   30.25S
CHARLES CITY * CLEAR     43  36  75 SE22G30   30.20F
CLINTON *      CLEAR     36  28  75 E10       30.36S WCI  28
DECORAH *      CLOUDY    39  30  70 SE15G23   30.25F WCI  31
DUBUQUE        PTCLDY    35  28  75 E8        30.32R WCI  29
MONTICELLO *   CLEAR     37  30  75 E9G20     30.30S WCI  31
OELWEIN *      CLEAR    N/A N/A N/A SE21G29   30.25F
WATERLOO       MOCLDY    42  35  76 SE20G26   30.22S
$$

IAZ064-065-067-068-078-191000-
   EAST CENTRAL IOWA

CITY           SKY/WX    TMP DP  RH WIND       PRES   REMARKS
DAVENPORT      PTCLDY    37  29  72 E13       30.32F WCI  29
IOWA CITY      MOCLDY    42  36  79 E12       30.29S
MT. PLEASANT * CLEAR     45  37  76 E12       30.25S
MUSCATINE *    CLEAR     43  32  65 E8        30.30R
QUAD CITIES    CLEAR     36  30  79 E9        30.31F WCI  29
$$

IAZ062-063-075>077-085>089-095>099-191000-
   SOUTHEAST IOWA

CITY           SKY/WX    TMP DP  RH WIND       PRES   REMARKS
BURLINGTON     CLEAR     43  37  79 E13       30.26F
FAIRFIELD *    CLEAR     45  34  65 E12       30.24R
FORT MADISON * CLEAR     45  39  81 E13       30.26S
KEOKUK *       CLEAR     46  39  76 E17       30.24S
OSKALOOSA *      N/A     46  32  57 SE10      30.21S
CENTERVILLE *  CLEAR     48  32  53 SE9       30.20S
OTTUMWA        MOCLDY    46  30  53 E12       30.20F
WASHINGTON *   CLEAR     43  37  81 E12       30.26R HAZE
$$

ABBREVIATIONS USED IN REMARKS
   TC - TEMPERATURES IN CELSIUS
  WCI - WIND CHILL INDEX
   HX - HEAT INDEX
  VSB - VISIBILITY
$$




USA.gov is the U.S. government's official web portal to all federal, state and local government web resources and services.